#timestamp,LO_Frequency,Hit,StdDev 
1514721615.5,286046993.4,N
1514721635.3,286046997.5,N
1514721655.2,286046995.7,N
1514721675.0,286046997.1,N
1514721675.9,286046997.1,N
1514721695.7,286046998.9,N
1514721715.6,286046998.9,N
1514721735.4,286046997.2,N
1514721755.2,286046995.9,N
1514721775.1,286046993.8,N
1514721776.0,286046993.8,N
1514721795.8,286046991.9,N
1514721815.6,286046998.0,N
1514721835.5,286046995.1,N
1514721855.3,286046997.0,N
1514721875.1,286046998.1,N
1514721895.9,286046996.6,N
1514721915.7,286046996.6,N
1514721935.5,286046998.0,N
1514721955.4,286046997.3,N
1514721975.2,286046997.3,N
1514721995.0,286046993.6,N
1514721995.9,286046993.6,N
1514722015.8,286046995.3,N
1514722035.6,286046998.3,N
1514722055.4,286046999.8,N
1514722075.2,286047002.2,N
1514722095.1,286047000.9,N
1514722096.0,286047000.9,N
1514722115.8,286047001.7,N
1514722135.6,286047005.0,N
1514722155.5,286047003.6,N
1514722175.3,286047003.0,N
1514722195.1,286047007.0,N
1514722215.9,286047002.9,N
1514722235.7,286047002.0,N
1514722255.5,286047005.6,N
1514722275.4,286047008.9,N
1514722295.2,286047006.3,N
1514722315.0,286047001.8,N
1514722315.9,286047001.8,N
1514722335.8,286047004.1,N
1514722355.6,286047003.7,N
1514722375.4,286047003.3,N
1514722395.2,286047006.0,N
1514722415.1,286047000.4,N
1514722416.0,286047000.4,N
1514722435.8,286046998.1,N
1514722455.6,286047001.3,N
1514722475.5,286047001.8,N
1514722495.3,286047000.0,N
1514722515.1,286046999.7,N
1514722535.9,286047006.8,N
1514722555.7,286047004.7,N
1514722575.5,286047008.4,Y
1514722595.4,286047005.5,P
1514722615.2,286047005.0,P
1514722635.0,286047007.2,P
1514722635.9,286047007.2,Y
1514722655.8,286047005.7,P
1514722675.6,286047006.0,P
1514722695.4,286047001.5,P
1514722715.3,286046999.7,N
1514722735.1,286047002.4,N
1514722736.0,286047002.4,N
1514722755.8,286047000.0,N
1514722775.7,286046996.7,N
1514722795.5,286046997.2,N
1514722815.3,286046999.5,N
1514722835.2,286046998.9,N
1514722855.9,286046997.9,N
1514722875.7,286046995.9,N
1514722895.5,286046995.2,N
1514722915.4,286046999.5,N
1514722935.2,286046992.7,N
1514722955.0,286046989.2,N
1514722955.9,286046989.2,N
1514722975.8,286046988.2,N
1514722995.6,286046985.6,N
1514723015.4,286046979.5,Y
1514723035.3,286046981.3,P
1514723055.1,286046982.8,N
1514723075.8,286046982.0,N
1514723095.7,286046982.0,N
1514723115.5,286046980.4,Y
1514723135.3,286046995.0,P
1514723155.2,286046996.0,N
1514723175.9,286046994.5,N
1514723195.7,286046993.5,N
1514723215.6,286046994.1,N
1514723235.4,286046994.4,N
1514723255.2,286046995.7,N
1514723275.0,286046994.5,N
1514723276.0,286046994.5,N
1514723295.8,286046994.4,N
1514723315.6,286046991.3,Y
1514723335.5,286046997.4,P
1514723355.3,286046998.1,N
1514723375.1,286047001.2,N
1514723395.8,286046998.9,N
1514723415.7,286046998.5,N
1514723435.5,286047000.8,N
1514723455.3,286046999.1,N
1514723475.2,286046998.2,N
1514723495.9,286047001.1,N
1514723515.7,286047000.7,N
1514723535.6,286047003.6,N
1514723555.4,286047000.4,N
1514723575.2,286047001.7,N
1514723595.1,286047003.9,N
1514723596.0,286047003.9,N
1514723615.8,286047004.2,N
1514723635.6,286047003.0,N
1514723655.4,286047005.0,N
1514723675.3,286047010.4,Y
1514723695.1,286047006.1,P
1514723715.8,286047008.4,P
1514723735.7,286047015.1,P
1514723755.5,286047013.1,N
1514723775.3,286047011.3,N
1514723795.2,286047011.6,N
1514723815.9,286047009.7,N
1514723835.7,286047013.3,Y
1514723855.6,286047002.9,P
1514723875.4,286047002.0,N
1514723895.2,286047001.8,N
1514723915.1,286047002.5,N
1514723916.0,286047002.5,N
1514723935.8,286047003.9,N
1514723955.6,286047005.2,N
1514723975.5,286047005.3,N
1514723995.3,286047004.6,N
1514724015.1,286047007.3,Y
1514724035.9,286047003.8,P
1514724055.7,286047004.2,P
1514724075.5,286046998.4,P
1514724095.4,286047000.3,N
1514724115.2,286047002.6,N
1514724135.0,286047002.6,N
1514724135.9,286047002.6,N
1514724155.8,286047001.4,N
1514724175.6,286047002.9,N
1514724195.4,286047006.1,Y
1514724215.3,286047001.4,P
1514724235.1,286047000.5,N
1514724236.0,286047000.5,N
1514724255.8,286047002.4,Y
1514724275.7,286047001.1,P
1514724295.5,286046997.6,P
1514724315.3,286046999.4,N
1514724335.2,286047002.7,N
1514724355.9,286047003.5,N
1514724375.7,286047002.0,N
1514724395.5,286047001.4,N
1514724415.4,286047000.4,N
1514724435.2,286046999.7,N
1514724455.0,286046999.7,N
1514724455.9,286046999.7,N
1514724475.8,286047002.6,N
1514724495.6,286046998.2,N
1514724515.4,286047002.3,N
1514724535.3,286047000.6,N
1514724555.1,286047005.7,Y
1514724575.8,286047002.9,P
1514724595.7,286047004.1,P
1514724615.5,286047004.7,P
1514724635.3,286047004.3,N
1514724655.2,286047001.7,N
1514724675.9,286047000.2,N
1514724695.7,286046999.7,N
1514724715.6,286047005.5,N
1514724735.4,286047006.9,Y
1514724755.2,286047002.9,P
1514724775.1,286047002.0,P
1514724776.0,286047002.0,P
1514724795.8,286046999.2,N
1514724815.6,286046993.8,Y
1514724835.5,286046988.7,P
1514724855.3,286046988.6,N
1514724875.1,286046989.3,N
1514724895.8,286046987.3,N
1514724915.7,286046989.0,N
1514724935.5,286046991.4,N
1514724955.3,286046989.6,N
1514724975.2,286046991.1,N
1514724995.9,286046988.7,N
1514725015.7,286046987.5,Y
1514725035.6,286046995.2,P
1514725055.4,286046996.0,N
1514725075.2,286046993.6,N
1514725095.1,286046994.2,N
1514725096.0,286046994.2,Y
1514725115.8,286046999.7,P
1514725135.6,286047001.6,N
1514725155.5,286047003.5,N
1514725175.3,286047003.9,N
1514725195.1,286046998.5,N
